Time,TemperatureF,DewpointF,PressureIn,WindDirection,WindDirectionDegrees,WindSpeedMPH,WindSpeedGustMPH,Humidity,HourlyPrecipIn,Conditions,Clouds,dailyrainin,SoftwareType,DateUTC
2013-07-09 00:02:00,74.6,68.1,29.97,SSE,157,0.0,0.0,80,0.00,,,0.00,WUHU21636XXSP,2013-07-09 05:02:00,
2013-07-09 00:07:00,74.3,67.9,29.97,SSE,157,0.0,0.0,80,0.00,,,0.00,WUHU21636XXSP,2013-07-09 05:07:00,
2013-07-09 00:12:00,74.2,67.8,29.97,SSE,157,0.0,0.0,80,0.00,,,0.00,WUHU21636XXSP,2013-07-09 05:12:00,
2013-07-09 00:17:00,74.2,67.8,29.97,SSE,157,0.0,0.0,80,0.00,,,0.00,WUHU21636XXSP,2013-07-09 05:17:00,
2013-07-09 00:22:00,74.0,67.9,29.97,SSE,157,0.0,0.0,81,0.00,,,0.00,WUHU21636XXSP,2013-07-09 05:22:00,
2013-07-09 00:27:00,73.8,67.7,29.97,SSE,157,0.0,0.0,81,0.00,,,0.00,WUHU21636XXSP,2013-07-09 05:27:00,
2013-07-09 00:32:00,73.8,67.7,29.96,SSE,157,0.0,0.0,81,0.00,,,0.00,WUHU21636XXSP,2013-07-09 05:32:00,
2013-07-09 00:37:00,73.6,67.5,29.96,SSE,157,0.0,0.0,81,0.00,,,0.00,WUHU21636XXSP,2013-07-09 05:37:00,
2013-07-09 00:42:00,73.6,67.5,29.96,SSE,157,0.0,0.0,81,0.00,,,0.00,WUHU21636XXSP,2013-07-09 05:42:00,
2013-07-09 00:47:00,73.4,67.3,29.95,SSE,157,0.0,0.0,81,0.00,,,0.00,WUHU21636XXSP,2013-07-09 05:47:00,
2013-07-09 00:52:00,73.4,67.3,29.95,SSE,157,0.0,0.0,81,0.00,,,0.00,WUHU21636XXSP,2013-07-09 05:52:00,
2013-07-09 00:57:00,73.4,67.3,29.95,SSE,157,0.0,0.0,81,0.00,,,0.00,WUHU21636XXSP,2013-07-09 05:57:00,
2013-07-09 01:02:00,73.4,67.3,29.95,SSE,157,0.0,0.0,81,0.00,,,0.00,WUHU21636XXSP,2013-07-09 06:02:00,
2013-07-09 01:07:00,73.4,67.3,29.95,SSE,157,0.0,0.0,81,0.00,,,0.00,WUHU21636XXSP,2013-07-09 06:07:00,
2013-07-09 01:12:00,73.1,67.0,29.95,SSE,157,0.0,0.0,81,0.00,,,0.00,WUHU21636XXSP,2013-07-09 06:12:00,
2013-07-09 01:17:00,73.1,67.0,29.95,SSE,157,0.0,0.0,81,0.00,,,0.00,WUHU21636XXSP,2013-07-09 06:17:00,
2013-07-09 01:22:00,73.1,67.3,29.95,SSE,157,0.0,0.0,82,0.00,,,0.00,WUHU21636XXSP,2013-07-09 06:22:00,
2013-07-09 01:27:00,73.1,67.3,29.95,SSE,157,0.0,0.0,82,0.00,,,0.00,WUHU21636XXSP,2013-07-09 06:27:00,
2013-07-09 01:32:00,72.9,67.1,29.95,SSE,157,0.0,0.0,82,0.00,,,0.00,WUHU21636XXSP,2013-07-09 06:32:00,
2013-07-09 01:37:00,72.9,67.1,29.95,SSE,157,0.0,0.0,82,0.00,,,0.00,WUHU21636XXSP,2013-07-09 06:37:00,
2013-07-09 01:42:00,72.7,66.9,29.95,SSE,157,0.0,0.0,82,0.00,,,0.00,WUHU21636XXSP,2013-07-09 06:42:00,
2013-07-09 01:47:00,72.7,66.9,29.96,SSE,157,0.0,0.0,82,0.00,,,0.00,WUHU21636XXSP,2013-07-09 06:47:00,
2013-07-09 01:52:00,72.4,66.7,29.96,SSE,157,0.0,0.0,82,0.00,,,0.00,WUHU21636XXSP,2013-07-09 06:52:00,
2013-07-09 01:57:00,72.4,66.7,29.96,SSE,157,0.0,0.0,82,0.00,,,0.00,WUHU21636XXSP,2013-07-09 06:57:00,
2013-07-09 02:02:00,72.4,66.7,29.96,SSE,157,0.0,0.0,82,0.00,,,0.00,WUHU21636XXSP,2013-07-09 07:02:00,
2013-07-09 02:07:00,72.3,66.6,29.96,SSE,157,0.0,0.0,82,0.00,,,0.00,WUHU21636XXSP,2013-07-09 07:07:00,
2013-07-09 02:12:00,72.3,66.6,29.96,SSE,157,0.0,0.0,82,0.00,,,0.00,WUHU21636XXSP,2013-07-09 07:12:00,
2013-07-09 02:17:00,72.1,66.4,29.96,SSE,157,0.0,0.0,82,0.00,,,0.00,WUHU21636XXSP,2013-07-09 07:17:00,
2013-07-09 02:22:00,72.1,66.4,29.96,SSE,157,0.0,0.0,82,0.00,,,0.00,WUHU21636XXSP,2013-07-09 07:22:00,
2013-07-09 02:27:00,71.9,66.2,29.96,SSE,157,0.0,0.0,82,0.00,,,0.00,WUHU21636XXSP,2013-07-09 07:27:00,
2013-07-09 02:32:00,71.9,66.2,29.96,SSE,157,0.0,0.0,82,0.00,,,0.00,WUHU21636XXSP,2013-07-09 07:32:00,
2013-07-09 02:37:00,71.7,66.0,29.97,SSE,157,0.0,0.0,82,0.00,,,0.00,WUHU21636XXSP,2013-07-09 07:37:00,
2013-07-09 02:42:00,71.7,66.0,29.97,SSE,157,0.0,0.0,82,0.00,,,0.00,WUHU21636XXSP,2013-07-09 07:42:00,
2013-07-09 02:47:00,71.7,66.0,29.96,SSE,157,0.0,0.0,82,0.00,,,0.00,WUHU21636XXSP,2013-07-09 07:47:00,
2013-07-09 02:52:00,71.7,66.0,29.96,SSE,157,0.0,0.0,82,0.00,,,0.00,WUHU21636XXSP,2013-07-09 07:52:00,
2013-07-09 02:57:00,71.5,65.8,29.96,SSE,157,0.0,0.0,82,0.00,,,0.00,WUHU21636XXSP,2013-07-09 07:57:00,
2013-07-09 03:02:00,71.5,65.8,29.96,SSE,157,0.0,0.0,82,0.00,,,0.00,WUHU21636XXSP,2013-07-09 08:02:00,
2013-07-09 03:07:00,71.5,65.8,29.95,SSE,157,0.0,0.0,82,0.00,,,0.00,WUHU21636XXSP,2013-07-09 08:07:00,
2013-07-09 03:12:00,71.5,65.8,29.94,SSE,157,0.0,0.0,82,0.00,,,0.00,WUHU21636XXSP,2013-07-09 08:12:00,
2013-07-09 03:17:00,71.5,65.8,29.94,SSE,157,0.0,0.0,82,0.00,,,0.00,WUHU21636XXSP,2013-07-09 08:17:00,
2013-07-09 03:22:00,71.5,66.1,29.94,SSE,157,0.0,0.0,83,0.00,,,0.00,WUHU21636XXSP,2013-07-09 08:22:00,
2013-07-09 03:27:00,71.4,66.0,29.94,SSE,157,0.0,0.0,83,0.00,,,0.00,WUHU21636XXSP,2013-07-09 08:27:00,
2013-07-09 03:32:00,71.4,66.0,29.94,SSE,157,0.0,0.0,83,0.00,,,0.00,WUHU21636XXSP,2013-07-09 08:32:00,
2013-07-09 03:37:00,71.2,65.8,29.94,SSE,157,0.0,0.0,83,0.00,,,0.00,WUHU21636XXSP,2013-07-09 08:37:00,
2013-07-09 03:42:00,71.2,65.8,29.94,SSE,157,0.0,0.0,83,0.00,,,0.00,WUHU21636XXSP,2013-07-09 08:42:00,
2013-07-09 03:47:00,71.0,65.6,29.94,SSE,157,0.0,0.0,83,0.00,,,0.00,WUHU21636XXSP,2013-07-09 08:47:00,
2013-07-09 03:52:00,71.0,65.6,29.94,West,270,0.0,0.0,83,0.00,,,0.00,WUHU21636XXSP,2013-07-09 08:52:00,
2013-07-09 03:57:00,71.0,65.6,29.93,West,270,0.0,0.0,83,0.00,,,0.00,WUHU21636XXSP,2013-07-09 08:57:00,
2013-07-09 04:02:00,71.0,65.6,29.93,SSW,202,0.0,0.0,83,0.00,,,0.00,WUHU21636XXSP,2013-07-09 09:02:00,
2013-07-09 04:07:00,71.0,65.9,29.93,WSW,247,0.0,0.0,84,0.00,,,0.00,WUHU21636XXSP,2013-07-09 09:07:00,
2013-07-09 04:12:00,71.2,66.1,29.94,SE,135,0.0,0.0,84,0.00,,,0.00,WUHU21636XXSP,2013-07-09 09:12:00,
2013-07-09 04:17:00,71.2,66.1,29.93,NE,45,0.0,0.0,84,0.00,,,0.00,WUHU21636XXSP,2013-07-09 09:17:00,
2013-07-09 04:23:00,71.2,66.1,29.93,ENE,67,0.0,0.0,84,0.00,,,0.00,WUHU21636XXSP,2013-07-09 09:23:00,
2013-07-09 04:28:00,71.2,66.1,29.92,ENE,67,0.0,0.0,84,0.00,,,0.00,WUHU21636XXSP,2013-07-09 09:28:00,
2013-07-09 04:33:00,71.0,65.9,29.92,NE,45,0.0,0.0,84,0.00,,,0.00,WUHU21636XXSP,2013-07-09 09:33:00,
2013-07-09 04:38:00,71.0,65.9,29.92,NE,45,0.0,0.0,84,0.00,,,0.00,WUHU21636XXSP,2013-07-09 09:38:00,
2013-07-09 04:43:00,71.0,65.9,29.92,WNW,292,0.0,0.0,84,0.00,,,0.00,WUHU21636XXSP,2013-07-09 09:43:00,
2013-07-09 04:48:00,70.8,65.7,29.92,WNW,292,0.0,0.0,84,0.00,,,0.00,WUHU21636XXSP,2013-07-09 09:48:00,
2013-07-09 04:53:00,71.0,65.9,29.92,WNW,292,0.0,0.0,84,0.00,,,0.00,WUHU21636XXSP,2013-07-09 09:53:00,
2013-07-09 04:58:00,71.2,66.1,29.91,WNW,292,0.0,0.0,84,0.00,,,0.00,WUHU21636XXSP,2013-07-09 09:58:00,
2013-07-09 05:03:00,71.2,66.1,29.92,WNW,292,0.0,0.0,84,0.00,,,0.00,WUHU21636XXSP,2013-07-09 10:03:00,
2013-07-09 05:08:00,71.4,66.4,29.92,NNW,337,0.0,0.0,84,0.00,,,0.00,WUHU21636XXSP,2013-07-09 10:08:00,
2013-07-09 05:13:00,71.5,66.5,29.92,SW,225,0.0,0.0,84,0.00,,,0.00,WUHU21636XXSP,2013-07-09 10:13:00,
2013-07-09 05:18:00,71.5,66.5,29.92,SW,225,0.0,0.0,84,0.00,,,0.00,WUHU21636XXSP,2013-07-09 10:18:00,
2013-07-09 05:23:00,71.7,66.7,29.92,ESE,112,0.0,0.0,84,0.00,,,0.00,WUHU21636XXSP,2013-07-09 10:23:00,
2013-07-09 05:28:00,71.7,66.7,29.92,West,270,0.0,0.0,84,0.00,,,0.00,WUHU21636XXSP,2013-07-09 10:28:00,
2013-07-09 05:33:00,71.7,66.7,29.92,West,270,0.0,0.0,84,0.00,,,0.00,WUHU21636XXSP,2013-07-09 10:33:00,
2013-07-09 05:38:00,71.7,66.7,29.92,South,180,0.0,0.0,84,0.00,,,0.00,WUHU21636XXSP,2013-07-09 10:38:00,
2013-07-09 05:43:00,71.7,66.7,29.92,SSE,157,0.0,0.0,84,0.00,,,0.00,WUHU21636XXSP,2013-07-09 10:43:00,
2013-07-09 05:48:00,71.5,66.5,29.92,NE,45,0.0,0.0,84,0.00,,,0.00,WUHU21636XXSP,2013-07-09 10:48:00,
2013-07-09 05:53:00,71.5,66.5,29.92,NE,45,0.0,0.0,84,0.00,,,0.00,WUHU21636XXSP,2013-07-09 10:53:00,
2013-07-09 05:58:00,71.7,66.7,29.92,NE,45,0.0,0.0,84,0.00,,,0.00,WUHU21636XXSP,2013-07-09 10:58:00,
2013-07-09 06:03:00,71.9,66.9,29.92,ENE,67,0.0,0.0,84,0.00,,,0.00,WUHU21636XXSP,2013-07-09 11:03:00,
2013-07-09 06:08:00,72.4,67.4,29.92,NNE,22,0.0,0.0,84,0.00,,,0.00,WUHU21636XXSP,2013-07-09 11:08:00,
2013-07-09 06:13:00,72.4,67.4,29.91,ENE,67,0.0,0.0,84,0.00,,,0.00,WUHU21636XXSP,2013-07-09 11:13:00,
2013-07-09 06:18:00,72.9,67.8,29.92,ENE,67,0.0,0.0,84,0.00,,,0.00,WUHU21636XXSP,2013-07-09 11:18:00,
2013-07-09 06:23:00,72.9,67.8,29.91,NE,45,0.0,0.0,84,0.00,,,0.00,WUHU21636XXSP,2013-07-09 11:23:00,
2013-07-09 06:28:00,72.9,67.8,29.91,NE,45,0.0,0.0,84,0.00,,,0.00,WUHU21636XXSP,2013-07-09 11:28:00,
2013-07-09 06:33:00,73.1,68.0,29.91,East,90,0.0,0.0,84,0.00,,,0.00,WUHU21636XXSP,2013-07-09 11:33:00,
2013-07-09 06:38:00,73.3,68.2,29.91,ESE,112,0.0,0.0,84,0.00,,,0.00,WUHU21636XXSP,2013-07-09 11:38:00,
2013-07-09 06:43:00,73.4,68.3,29.91,ENE,67,0.0,0.0,84,0.00,,,0.00,WUHU21636XXSP,2013-07-09 11:43:00,
2013-07-09 06:48:00,73.4,68.3,29.91,ENE,67,0.0,0.0,84,0.00,,,0.00,WUHU21636XXSP,2013-07-09 11:48:00,
2013-07-09 06:53:00,73.6,68.5,29.91,ENE,67,0.0,0.0,84,0.00,,,0.00,WUHU21636XXSP,2013-07-09 11:53:00,
2013-07-09 06:58:00,73.6,68.5,29.91,ENE,67,0.0,0.0,84,0.00,,,0.00,WUHU21636XXSP,2013-07-09 11:58:00,
2013-07-09 07:03:00,73.6,68.5,29.90,ENE,67,0.0,0.0,84,0.00,,,0.00,WUHU21636XXSP,2013-07-09 12:03:00,
2013-07-09 07:08:00,73.6,68.5,29.89,East,90,0.0,0.0,84,0.00,,,0.00,WUHU21636XXSP,2013-07-09 12:08:00,
2013-07-09 07:13:00,73.6,68.5,29.89,East,90,0.0,0.0,84,0.00,,,0.00,WUHU21636XXSP,2013-07-09 12:13:00,
2013-07-09 07:18:00,73.6,68.5,29.89,East,90,0.0,0.0,84,0.00,,,0.00,WUHU21636XXSP,2013-07-09 12:18:00,
2013-07-09 07:23:00,74.0,68.9,29.89,ESE,112,0.8,0.8,84,0.00,,,0.00,WUHU21636XXSP,2013-07-09 12:23:00,
2013-07-09 07:28:00,74.0,68.9,29.90,ESE,112,0.0,0.8,84,0.00,,,0.00,WUHU21636XXSP,2013-07-09 12:28:00,
2013-07-09 07:33:00,74.0,68.9,29.90,ESE,112,0.0,0.8,84,0.00,,,0.00,WUHU21636XXSP,2013-07-09 12:33:00,
2013-07-09 07:38:00,74.3,69.2,29.90,ESE,112,0.0,0.0,84,0.00,,,0.00,WUHU21636XXSP,2013-07-09 12:38:00,
2013-07-09 07:43:00,74.6,69.4,29.90,ESE,112,0.0,0.0,84,0.00,,,0.00,WUHU21636XXSP,2013-07-09 12:43:00,
2013-07-09 07:48:00,74.8,69.6,29.90,ESE,112,0.0,0.0,84,0.00,,,0.00,WUHU21636XXSP,2013-07-09 12:48:00,
2013-07-09 07:53:00,75.0,69.9,29.89,West,270,4.0,4.0,84,0.00,,,0.00,WUHU21636XXSP,2013-07-09 12:53:00,
2013-07-09 07:58:00,75.3,70.2,29.89,West,270,0.0,4.0,84,0.00,,,0.00,WUHU21636XXSP,2013-07-09 12:58:00,
2013-07-09 08:03:00,75.3,70.2,29.90,West,270,0.0,0.0,84,0.00,,,0.00,WUHU21636XXSP,2013-07-09 13:03:00,
2013-07-09 08:08:00,75.3,70.2,29.90,West,270,0.0,0.0,84,0.00,,,0.00,WUHU21636XXSP,2013-07-09 13:08:00,
2013-07-09 08:13:00,75.3,70.2,29.91,WNW,292,1.2,1.2,84,0.00,,,0.00,WUHU21636XXSP,2013-07-09 13:13:00,
2013-07-09 08:18:00,75.5,70.4,29.92,West,270,0.0,1.2,84,0.00,,,0.00,WUHU21636XXSP,2013-07-09 13:18:00,
2013-07-09 08:23:00,75.5,70.0,29.92,ESE,112,0.0,2.6,83,0.00,,,0.00,WUHU21636XXSP,2013-07-09 13:23:00,
2013-07-09 08:28:00,75.3,69.8,29.92,WSW,247,0.0,2.6,83,0.00,,,0.00,WUHU21636XXSP,2013-07-09 13:28:00,
2013-07-09 08:33:00,75.3,69.8,29.92,North,0,0.0,0.0,83,0.00,,,0.00,WUHU21636XXSP,2013-07-09 13:33:00,
2013-07-09 08:38:00,75.0,69.2,29.92,NNE,22,0.0,1.2,82,0.00,,,0.00,WUHU21636XXSP,2013-07-09 13:38:00,
2013-07-09 08:43:00,74.6,68.8,29.92,NNW,337,2.2,2.2,82,0.00,,,0.00,WUHU21636XXSP,2013-07-09 13:43:00,
2013-07-09 08:48:00,74.2,68.5,29.92,NW,315,3.0,3.0,82,0.00,,,0.00,WUHU21636XXSP,2013-07-09 13:48:00,
2013-07-09 08:53:00,73.6,67.8,29.93,NNW,337,0.8,3.0,82,0.02,,,0.02,WUHU21636XXSP,2013-07-09 13:53:00,
2013-07-09 08:58:00,73.1,67.7,29.93,WNW,292,0.0,3.0,83,0.02,,,0.02,WUHU21636XXSP,2013-07-09 13:58:00,
2013-07-09 09:03:00,72.7,67.3,29.93,NE,45,0.0,0.0,83,0.04,,,0.04,WUHU21636XXSP,2013-07-09 14:03:00,
2013-07-09 09:08:00,72.4,67.0,29.93,WNW,292,0.0,0.0,83,0.04,,,0.04,WUHU21636XXSP,2013-07-09 14:08:00,
2013-07-09 09:13:00,71.7,66.3,29.92,North,0,0.0,0.0,83,0.08,,,0.08,WUHU21636XXSP,2013-07-09 14:13:00,
2013-07-09 09:18:00,71.5,66.1,29.91,NNE,22,0.0,0.0,83,0.08,,,0.08,WUHU21636XXSP,2013-07-09 14:18:00,
2013-07-09 09:23:00,71.5,66.1,29.90,NNE,22,0.0,0.0,83,0.10,,,0.10,WUHU21636XXSP,2013-07-09 14:23:00,
2013-07-09 09:28:00,71.5,66.1,29.90,NNE,22,0.0,0.0,83,0.10,,,0.10,WUHU21636XXSP,2013-07-09 14:28:00,
2013-07-09 09:33:00,71.5,66.5,29.89,NNE,22,0.0,0.0,84,0.10,,,0.10,WUHU21636XXSP,2013-07-09 14:33:00,
2013-07-09 09:38:00,71.5,66.5,29.90,WNW,292,0.0,0.0,84,0.10,,,0.10,WUHU21636XXSP,2013-07-09 14:38:00,
2013-07-09 09:43:00,71.4,66.4,29.91,WNW,292,0.0,0.0,84,0.10,,,0.10,WUHU21636XXSP,2013-07-09 14:43:00,
2013-07-09 09:48:00,71.2,66.1,29.91,WNW,292,0.0,0.0,84,0.10,,,0.10,WUHU21636XXSP,2013-07-09 14:48:00,
2013-07-09 09:53:00,71.5,66.5,29.90,WNW,292,0.0,0.0,84,0.10,,,0.10,WUHU21636XXSP,2013-07-09 14:53:00,
2013-07-09 09:58:00,71.5,66.5,29.89,WNW,292,0.0,0.0,84,0.10,,,0.10,WUHU21636XXSP,2013-07-09 14:58:00,
2013-07-09 10:03:00,71.5,66.5,29.89,WNW,292,0.0,0.0,84,0.06,,,0.10,WUHU21636XXSP,2013-07-09 15:03:00,
2013-07-09 10:08:00,71.5,66.5,29.89,WNW,292,0.0,0.0,84,0.06,,,0.10,WUHU21636XXSP,2013-07-09 15:08:00,
2013-07-09 10:13:00,71.5,66.5,29.89,WNW,292,0.0,0.0,84,0.06,,,0.10,WUHU21636XXSP,2013-07-09 15:13:00,
2013-07-09 10:18:00,71.4,66.4,29.89,NNE,22,0.0,0.0,84,0.06,,,0.10,WUHU21636XXSP,2013-07-09 15:18:00,
2013-07-09 10:23:00,71.5,66.5,29.89,NNE,22,0.0,0.0,84,0.06,,,0.10,WUHU21636XXSP,2013-07-09 15:23:00,
2013-07-09 10:28:00,71.4,66.4,29.89,NNE,22,0.0,0.0,84,0.06,,,0.10,WUHU21636XXSP,2013-07-09 15:28:00,
2013-07-09 10:33:00,71.2,66.1,29.89,NW,315,0.0,0.0,84,0.06,,,0.10,WUHU21636XXSP,2013-07-09 15:33:00,
2013-07-09 10:38:00,71.4,66.4,29.90,ENE,67,0.0,0.0,84,0.06,,,0.10,WUHU21636XXSP,2013-07-09 15:38:00,
2013-07-09 10:43:00,71.4,66.4,29.90,ENE,67,0.0,0.0,84,0.06,,,0.10,WUHU21636XXSP,2013-07-09 15:43:00,
2013-07-09 10:48:00,71.5,66.5,29.90,NNW,337,0.0,0.0,84,0.06,,,0.10,WUHU21636XXSP,2013-07-09 15:48:00,
2013-07-09 10:53:00,71.4,66.4,29.89,NW,315,0.0,0.0,84,0.06,,,0.10,WUHU21636XXSP,2013-07-09 15:53:00,
2013-07-09 10:58:00,71.5,66.5,29.90,ENE,67,0.0,0.0,84,0.06,,,0.10,WUHU21636XXSP,2013-07-09 15:58:00,
2013-07-09 11:03:00,71.5,66.5,29.90,ENE,67,3.0,3.0,84,0.00,,,0.10,WUHU21636XXSP,2013-07-09 16:03:00,
2013-07-09 11:08:00,71.5,66.1,29.91,SE,135,0.0,3.0,83,0.00,,,0.10,WUHU21636XXSP,2013-07-09 16:08:00,
2013-07-09 11:13:00,71.7,66.7,29.91,NW,315,0.0,0.0,84,0.00,,,0.10,WUHU21636XXSP,2013-07-09 16:13:00,
2013-07-09 11:18:00,71.7,66.7,29.90,NW,315,0.0,0.0,84,0.00,,,0.10,WUHU21636XXSP,2013-07-09 16:18:00,
2013-07-09 11:23:00,71.7,66.7,29.90,NNW,337,0.0,0.0,84,0.00,,,0.10,WUHU21636XXSP,2013-07-09 16:23:00,
2013-07-09 11:28:00,72.1,67.1,29.90,North,0,0.0,4.4,84,0.00,,,0.10,WUHU21636XXSP,2013-07-09 16:28:00,
2013-07-09 11:33:00,72.1,67.1,29.90,North,0,0.0,4.4,84,0.00,,,0.10,WUHU21636XXSP,2013-07-09 16:33:00,
2013-07-09 11:38:00,72.1,67.1,29.90,NE,45,0.0,0.0,84,0.00,,,0.10,WUHU21636XXSP,2013-07-09 16:38:00,
2013-07-09 11:43:00,72.1,66.7,29.89,NW,315,0.0,0.0,83,0.00,,,0.10,WUHU21636XXSP,2013-07-09 16:43:00,
2013-07-09 11:48:00,72.1,67.1,29.88,WNW,292,0.0,0.0,84,0.00,,,0.10,WUHU21636XXSP,2013-07-09 16:48:00,
2013-07-09 11:53:00,72.4,67.4,29.88,WNW,292,0.0,0.0,84,0.00,,,0.10,WUHU21636XXSP,2013-07-09 16:53:00,
2013-07-09 11:58:00,72.4,67.4,29.88,ENE,67,0.0,0.0,84,0.00,,,0.10,WUHU21636XXSP,2013-07-09 16:58:00,
2013-07-09 12:03:00,72.7,67.6,29.88,SE,135,0.0,0.0,84,0.00,,,0.10,WUHU21636XXSP,2013-07-09 17:03:00,
2013-07-09 12:08:00,72.7,67.6,29.88,West,270,0.0,0.0,84,0.00,,,0.10,WUHU21636XXSP,2013-07-09 17:08:00,
2013-07-09 12:13:00,72.9,67.8,29.88,SE,135,0.0,0.0,84,0.00,,,0.10,WUHU21636XXSP,2013-07-09 17:13:00,
2013-07-09 12:18:00,73.4,68.3,29.87,WNW,292,0.0,0.0,84,0.00,,,0.10,WUHU21636XXSP,2013-07-09 17:18:00,
2013-07-09 12:23:00,73.6,68.5,29.87,West,270,0.0,0.0,84,0.00,,,0.10,WUHU21636XXSP,2013-07-09 17:23:00,
2013-07-09 12:28:00,74.0,68.9,29.87,NNW,337,0.0,0.0,84,0.00,,,0.10,WUHU21636XXSP,2013-07-09 17:28:00,
2013-07-09 12:33:00,74.6,69.4,29.87,ESE,112,0.0,0.0,84,0.00,,,0.10,WUHU21636XXSP,2013-07-09 17:33:00,
2013-07-09 12:38:00,75.3,70.2,29.86,North,0,0.0,0.0,84,0.00,,,0.10,WUHU21636XXSP,2013-07-09 17:38:00,
2013-07-09 12:43:00,75.9,70.4,29.86,West,270,0.0,0.0,83,0.00,,,0.10,WUHU21636XXSP,2013-07-09 17:43:00,
2013-07-09 12:48:00,76.4,70.6,29.85,NW,315,3.4,3.4,82,0.00,,,0.10,WUHU21636XXSP,2013-07-09 17:48:00,
2013-07-09 12:53:00,77.2,71.3,29.85,ESE,112,0.0,3.4,82,0.00,,,0.10,WUHU21636XXSP,2013-07-09 17:53:00,
2013-07-09 12:58:00,77.8,71.9,29.84,WNW,292,0.0,0.0,82,0.00,,,0.10,WUHU21636XXSP,2013-07-09 17:58:00,
2013-07-09 13:03:00,78.1,72.3,29.84,ENE,67,0.0,1.6,82,0.00,,,0.10,WUHU21636XXSP,2013-07-09 18:03:00,
2013-07-09 13:08:00,78.8,71.8,29.84,West,270,0.0,1.6,79,0.00,,,0.10,WUHU21636XXSP,2013-07-09 18:08:00,
2013-07-09 13:13:00,79.3,72.3,29.84,WNW,292,0.0,0.0,79,0.00,,,0.10,WUHU21636XXSP,2013-07-09 18:13:00,
2013-07-09 13:18:00,79.3,72.3,29.84,West,270,0.0,0.0,79,0.00,,,0.10,WUHU21636XXSP,2013-07-09 18:18:00,
2013-07-09 13:23:00,80.0,72.7,29.84,ESE,112,0.0,0.0,78,0.00,,,0.10,WUHU21636XXSP,2013-07-09 18:23:00,
2013-07-09 13:28:00,80.2,72.5,29.84,West,270,2.2,2.2,77,0.00,,,0.10,WUHU21636XXSP,2013-07-09 18:28:00,
2013-07-09 13:33:00,80.6,72.9,29.84,SW,225,0.0,2.2,77,0.00,,,0.10,WUHU21636XXSP,2013-07-09 18:33:00,
2013-07-09 13:38:00,81.0,72.8,29.84,North,0,2.6,2.6,76,0.02,,,0.10,WUHU21636XXSP,2013-07-09 18:38:00,
2013-07-09 13:43:00,81.2,73.0,29.84,West,270,0.0,2.6,76,0.02,,,0.12,WUHU21636XXSP,2013-07-09 18:43:00,
2013-07-09 13:48:00,81.6,73.5,29.83,North,0,0.0,2.6,76,0.02,,,0.12,WUHU21636XXSP,2013-07-09 18:48:00,
2013-07-09 13:53:00,82.1,74.0,29.83,WNW,292,0.0,0.0,76,0.02,,,0.12,WUHU21636XXSP,2013-07-09 18:53:00,
2013-07-09 13:58:00,82.7,74.2,29.83,NNE,22,0.0,0.0,75,0.02,,,0.12,WUHU21636XXSP,2013-07-09 18:58:00,
2013-07-09 14:03:00,82.8,73.9,29.83,WNW,292,0.0,0.0,74,0.02,,,0.12,WUHU21636XXSP,2013-07-09 19:03:00,
2013-07-09 14:08:00,83.1,74.1,29.83,NE,45,4.0,4.0,74,0.02,,,0.12,WUHU21636XXSP,2013-07-09 19:08:00,
2013-07-09 14:13:00,83.5,74.5,29.84,NE,45,1.2,6.6,74,0.02,,,0.12,WUHU21636XXSP,2013-07-09 19:13:00,
2013-07-09 14:18:00,83.7,74.7,29.83,SW,225,0.0,6.6,74,0.02,,,0.12,WUHU21636XXSP,2013-07-09 19:18:00,
2013-07-09 14:23:00,83.8,74.4,29.83,West,270,0.0,4.4,73,0.02,,,0.12,WUHU21636XXSP,2013-07-09 19:23:00,
2013-07-09 14:28:00,84.4,75.0,29.83,North,0,8.0,8.0,73,0.02,,,0.12,WUHU21636XXSP,2013-07-09 19:28:00,
2013-07-09 14:33:00,84.7,75.3,29.83,WNW,292,1.2,8.0,73,0.02,,,0.12,WUHU21636XXSP,2013-07-09 19:33:00,
2013-07-09 14:38:00,84.7,74.9,29.83,NE,45,0.0,8.0,72,0.02,,,0.12,WUHU21636XXSP,2013-07-09 19:38:00,
2013-07-09 14:43:00,84.9,75.1,29.83,NE,45,0.0,4.8,72,0.02,,,0.12,WUHU21636XXSP,2013-07-09 19:43:00,
2013-07-09 14:48:00,84.7,74.5,29.83,NW,315,1.6,7.0,71,0.02,,,0.12,WUHU21636XXSP,2013-07-09 19:48:00,
2013-07-09 14:53:00,84.6,74.8,29.84,NE,45,0.0,7.0,72,0.02,,,0.12,WUHU21636XXSP,2013-07-09 19:53:00,
2013-07-09 14:58:00,84.4,74.6,29.84,North,0,4.4,4.4,72,0.02,,,0.12,WUHU21636XXSP,2013-07-09 19:58:00,
2013-07-09 15:03:00,84.4,74.6,29.83,NNW,337,0.0,4.8,72,0.00,,,0.12,WUHU21636XXSP,2013-07-09 20:03:00,
2013-07-09 15:08:00,84.2,75.2,29.83,ENE,67,0.0,4.8,74,0.00,,,0.12,WUHU21636XXSP,2013-07-09 20:08:00,
2013-07-09 15:13:00,84.2,74.4,29.83,NNW,337,0.0,6.2,72,0.00,,,0.12,WUHU21636XXSP,2013-07-09 20:13:00,
2013-07-09 15:18:00,84.4,74.6,29.82,ENE,67,0.0,6.2,72,0.00,,,0.12,WUHU21636XXSP,2013-07-09 20:18:00,
2013-07-09 15:23:00,84.7,75.3,29.82,West,270,1.6,1.6,73,0.00,,,0.12,WUHU21636XXSP,2013-07-09 20:23:00,
2013-07-09 15:28:00,84.9,75.1,29.82,NNW,337,4.8,4.8,72,0.00,,,0.12,WUHU21636XXSP,2013-07-09 20:28:00,
2013-07-09 15:33:00,85.6,75.3,29.82,North,350,2.7,5.8,71,0.00,,,0.12,WUHU21636XXSP,2013-07-09 20:33:00,
2013-07-09 15:38:00,85.7,74.2,29.82,NNW,337,4.0,5.8,68,0.00,,,0.12,WUHU21636XXSP,2013-07-09 20:38:00,
2013-07-09 15:43:00,85.7,75.0,29.82,WNW,292,0.0,4.0,70,0.00,,,0.12,WUHU21636XXSP,2013-07-09 20:43:00,
2013-07-09 15:48:00,85.7,74.6,29.81,NNW,338,8.8,8.8,69,0.00,,,0.12,WUHU21636XXSP,2013-07-09 20:48:00,
2013-07-09 15:53:00,86.1,75.0,29.81,NW,315,4.8,8.8,69,0.00,,,0.12,WUHU21636XXSP,2013-07-09 20:53:00,
2013-07-09 15:58:00,86.5,74.5,29.81,NNW,337,1.6,4.8,67,0.00,,,0.12,WUHU21636XXSP,2013-07-09 20:58:00,
2013-07-09 16:03:00,86.6,74.2,29.81,West,270,4.4,4.4,66,0.00,,,0.12,WUHU21636XXSP,2013-07-09 21:03:00,
2013-07-09 16:08:00,86.6,74.6,29.81,SW,225,2.6,4.4,67,0.00,,,0.12,WUHU21636XXSP,2013-07-09 21:08:00,
2013-07-09 16:13:00,86.3,74.3,29.81,NNW,337,0.0,2.6,67,0.00,,,0.12,WUHU21636XXSP,2013-07-09 21:13:00,
2013-07-09 16:18:00,86.5,74.5,29.80,ENE,67,0.0,2.6,67,0.00,,,0.12,WUHU21636XXSP,2013-07-09 21:18:00,
2013-07-09 16:23:00,86.6,75.1,29.80,SSW,202,0.0,0.0,68,0.00,,,0.12,WUHU21636XXSP,2013-07-09 21:23:00,
2013-07-09 16:28:00,86.8,74.8,29.81,NW,323,3.7,4.8,67,0.00,,,0.12,WUHU21636XXSP,2013-07-09 21:28:00,
2013-07-09 16:33:00,86.8,74.4,29.81,WNW,292,0.8,4.8,66,0.00,,,0.12,WUHU21636XXSP,2013-07-09 21:33:00,
2013-07-09 16:38:00,86.6,74.6,29.80,NE,45,5.2,14.6,67,0.00,,,0.12,WUHU21636XXSP,2013-07-09 21:38:00,
2013-07-09 16:43:00,86.8,74.8,29.81,WNW,292,0.0,14.6,67,0.00,,,0.12,WUHU21636XXSP,2013-07-09 21:43:00,
2013-07-09 16:48:00,87.3,75.7,29.81,WNW,292,0.0,5.2,68,0.00,,,0.12,WUHU21636XXSP,2013-07-09 21:48:00,
2013-07-09 16:53:00,87.6,75.5,29.81,SE,135,0.0,0.0,67,0.00,,,0.12,WUHU21636XXSP,2013-07-09 21:53:00,
2013-07-09 16:58:00,87.6,75.5,29.80,NNW,337,0.0,0.0,67,0.00,,,0.12,WUHU21636XXSP,2013-07-09 21:58:00,
2013-07-09 17:03:00,87.3,75.2,29.80,ESE,112,0.0,0.0,67,0.00,,,0.12,WUHU21636XXSP,2013-07-09 22:03:00,
2013-07-09 17:08:00,87.3,75.7,29.80,WNW,292,0.0,0.0,68,0.00,,,0.12,WUHU21636XXSP,2013-07-09 22:08:00,
2013-07-09 17:13:00,87.5,75.9,29.80,ENE,67,0.0,0.0,68,0.00,,,0.12,WUHU21636XXSP,2013-07-09 22:13:00,
2013-07-09 17:18:00,87.8,75.7,29.81,NW,315,0.0,0.0,67,0.00,,,0.12,WUHU21636XXSP,2013-07-09 22:18:00,
2013-07-09 17:23:00,88.0,76.4,29.81,ENE,67,0.0,0.0,68,0.00,,,0.12,WUHU21636XXSP,2013-07-09 22:23:00,
2013-07-09 17:28:00,87.8,75.3,29.81,West,270,0.0,0.0,66,0.00,,,0.12,WUHU21636XXSP,2013-07-09 22:28:00,
2013-07-09 17:33:00,88.0,75.5,29.81,ENE,67,0.0,0.0,66,0.00,,,0.12,WUHU21636XXSP,2013-07-09 22:33:00,
2013-07-09 17:38:00,88.2,75.7,29.81,West,270,0.0,0.4,66,0.00,,,0.12,WUHU21636XXSP,2013-07-09 22:38:00,
2013-07-09 17:43:00,88.2,76.1,29.81,West,270,3.0,3.0,67,0.00,,,0.12,WUHU21636XXSP,2013-07-09 22:43:00,
2013-07-09 17:48:00,88.2,74.3,29.81,ENE,67,0.0,3.0,63,0.00,,,0.12,WUHU21636XXSP,2013-07-09 22:48:00,
2013-07-09 17:53:00,88.2,72.3,29.81,NNW,337,3.0,3.0,59,0.00,,,0.12,WUHU21636XXSP,2013-07-09 22:53:00,
2013-07-09 17:58:00,87.6,72.7,29.81,South,180,0.0,3.0,61,0.00,,,0.12,WUHU21636XXSP,2013-07-09 22:58:00,
2013-07-09 18:03:00,87.3,72.0,29.81,West,270,0.0,3.0,60,0.00,,,0.12,WUHU21636XXSP,2013-07-09 23:03:00,
2013-07-09 18:08:00,87.0,71.8,29.81,West,270,0.0,0.0,60,0.00,,,0.12,WUHU21636XXSP,2013-07-09 23:08:00,
2013-07-09 18:13:00,86.8,72.5,29.81,SE,135,0.0,0.0,62,0.00,,,0.12,WUHU21636XXSP,2013-07-09 23:13:00,
2013-07-09 18:18:00,86.6,72.8,29.82,West,270,0.0,0.0,63,0.00,,,0.12,WUHU21636XXSP,2013-07-09 23:18:00,
2013-07-09 18:23:00,86.6,71.9,29.81,NW,315,0.0,0.0,61,0.00,,,0.12,WUHU21636XXSP,2013-07-09 23:23:00,
2013-07-09 18:28:00,86.5,72.7,29.81,SW,225,5.9,11.0,63,0.00,,,0.12,WUHU21636XXSP,2013-07-09 23:28:00,
2013-07-09 18:33:00,86.3,71.6,29.82,NNW,337,0.0,11.0,61,0.00,,,0.12,WUHU21636XXSP,2013-07-09 23:33:00,
2013-07-09 18:38:00,86.1,71.8,29.81,NW,315,1.2,1.2,62,0.00,,,0.12,WUHU21636XXSP,2013-07-09 23:38:00,
2013-07-09 18:43:00,85.9,71.6,29.82,NNW,337,0.0,1.2,62,0.00,,,0.12,WUHU21636XXSP,2013-07-09 23:43:00,
2013-07-09 18:48:00,85.7,71.0,29.82,ENE,67,0.0,1.2,61,0.00,,,0.12,WUHU21636XXSP,2013-07-09 23:48:00,
2013-07-09 18:53:00,85.9,71.6,29.82,WNW,292,0.0,0.0,62,0.00,,,0.12,WUHU21636XXSP,2013-07-09 23:53:00,
2013-07-09 18:58:00,85.7,71.0,29.82,WNW,292,0.0,0.0,61,0.00,,,0.12,WUHU21636XXSP,2013-07-09 23:58:00,
2013-07-09 19:03:00,85.7,71.4,29.82,SSW,202,4.0,4.0,62,0.00,,,0.12,WUHU21636XXSP,2013-07-10 00:03:00,
2013-07-09 19:08:00,85.6,71.8,29.83,NNW,337,0.0,4.0,63,0.00,,,0.12,WUHU21636XXSP,2013-07-10 00:08:00,
2013-07-09 19:13:00,85.4,72.5,29.83,NNW,337,0.0,0.0,65,0.00,,,0.12,WUHU21636XXSP,2013-07-10 00:13:00,
2013-07-09 19:18:00,84.9,73.0,29.83,NNE,22,0.0,0.0,67,0.00,,,0.12,WUHU21636XXSP,2013-07-10 00:18:00,
2013-07-09 19:23:00,84.4,72.5,29.83,SE,135,0.0,0.0,67,0.00,,,0.12,WUHU21636XXSP,2013-07-10 00:23:00,
2013-07-09 19:28:00,83.8,72.4,29.83,ENE,67,0.0,0.0,68,0.00,,,0.12,WUHU21636XXSP,2013-07-10 00:28:00,
2013-07-09 19:33:00,83.8,72.4,29.83,ENE,67,0.0,0.0,68,0.00,,,0.12,WUHU21636XXSP,2013-07-10 00:33:00,
2013-07-09 19:38:00,83.3,71.9,29.84,WNW,292,0.0,0.0,68,0.00,,,0.12,WUHU21636XXSP,2013-07-10 00:38:00,
2013-07-09 19:43:00,82.8,71.5,29.84,WNW,292,0.0,0.0,68,0.00,,,0.12,WUHU21636XXSP,2013-07-10 00:43:00,
2013-07-09 19:48:00,82.8,71.0,29.84,WNW,292,0.0,0.0,67,0.00,,,0.12,WUHU21636XXSP,2013-07-10 00:48:00,
2013-07-09 19:53:00,82.8,71.5,29.84,WNW,292,0.0,0.0,68,0.00,,,0.12,WUHU21636XXSP,2013-07-10 00:53:00,
2013-07-09 19:58:00,82.3,71.4,29.84,North,0,0.0,0.0,69,0.00,,,0.12,WUHU21636XXSP,2013-07-10 00:58:00,
2013-07-09 20:03:00,82.1,71.2,29.84,North,0,0.0,0.0,69,0.00,,,0.12,WUHU21636XXSP,2013-07-10 01:03:00,
2013-07-09 20:08:00,81.9,71.4,29.84,North,0,0.0,0.0,70,0.00,,,0.12,WUHU21636XXSP,2013-07-10 01:08:00,
2013-07-09 20:13:00,81.6,71.5,29.84,North,0,0.0,0.0,71,0.00,,,0.12,WUHU21636XXSP,2013-07-10 01:13:00,
2013-07-09 20:18:00,81.2,71.5,29.84,North,0,0.0,0.0,72,0.00,,,0.12,WUHU21636XXSP,2013-07-10 01:18:00,
2013-07-09 20:23:00,81.0,71.3,29.84,North,0,0.0,0.0,72,0.00,,,0.12,WUHU21636XXSP,2013-07-10 01:23:00,
2013-07-09 20:28:00,80.6,71.0,29.84,North,0,0.0,0.0,72,0.00,,,0.12,WUHU21636XXSP,2013-07-10 01:28:00,
2013-07-09 20:33:00,80.2,71.0,29.84,North,0,0.0,0.0,73,0.00,,,0.12,WUHU21636XXSP,2013-07-10 01:33:00,
2013-07-09 20:38:00,80.0,70.8,29.84,North,0,0.0,0.0,73,0.00,,,0.12,WUHU21636XXSP,2013-07-10 01:38:00,
2013-07-09 20:43:00,79.9,70.7,29.84,North,0,0.0,0.0,73,0.00,,,0.12,WUHU21636XXSP,2013-07-10 01:43:00,
2013-07-09 20:48:00,79.3,70.5,29.84,North,0,0.0,0.0,74,0.00,,,0.12,WUHU21636XXSP,2013-07-10 01:48:00,
2013-07-09 20:53:00,79.3,70.5,29.84,North,0,0.0,0.0,74,0.00,,,0.12,WUHU21636XXSP,2013-07-10 01:53:00,
2013-07-09 20:58:00,79.1,70.2,29.84,North,0,0.0,0.0,74,0.00,,,0.12,WUHU21636XXSP,2013-07-10 01:58:00,
2013-07-09 21:03:00,78.8,70.3,29.84,North,0,0.0,0.0,75,0.00,,,0.12,WUHU21636XXSP,2013-07-10 02:03:00,
2013-07-09 21:08:00,78.3,69.9,29.85,North,0,0.0,0.0,75,0.00,,,0.12,WUHU21636XXSP,2013-07-10 02:08:00,
2013-07-09 21:13:00,78.1,69.7,29.85,North,0,0.0,0.0,75,0.00,,,0.12,WUHU21636XXSP,2013-07-10 02:13:00,
2013-07-09 21:18:00,77.8,69.4,29.85,North,0,0.0,0.0,75,0.00,,,0.12,WUHU21636XXSP,2013-07-10 02:18:00,
2013-07-09 21:23:00,77.8,69.8,29.85,North,0,0.0,0.0,76,0.00,,,0.12,WUHU21636XXSP,2013-07-10 02:23:00,
2013-07-09 21:28:00,77.4,69.4,29.85,North,0,0.0,0.0,76,0.00,,,0.12,WUHU21636XXSP,2013-07-10 02:28:00,
2013-07-09 21:33:00,76.9,68.9,29.85,North,0,0.0,0.0,76,0.00,,,0.12,WUHU21636XXSP,2013-07-10 02:33:00,
2013-07-09 21:38:00,76.9,68.9,29.85,North,0,0.0,0.0,76,0.00,,,0.12,WUHU21636XXSP,2013-07-10 02:38:00,
2013-07-09 21:43:00,76.7,69.0,29.85,North,0,0.0,0.0,77,0.00,,,0.12,WUHU21636XXSP,2013-07-10 02:43:00,
2013-07-09 21:48:00,76.2,68.6,29.85,North,0,0.0,0.0,77,0.00,,,0.12,WUHU21636XXSP,2013-07-10 02:48:00,
2013-07-09 21:53:00,76.1,68.5,29.86,North,0,0.0,0.0,77,0.00,,,0.12,WUHU21636XXSP,2013-07-10 02:53:00,
2013-07-09 21:58:00,75.9,68.7,29.86,North,0,0.0,0.0,78,0.00,,,0.12,WUHU21636XXSP,2013-07-10 02:58:00,
2013-07-09 22:03:00,75.7,68.5,29.86,North,0,0.0,0.0,78,0.00,,,0.12,WUHU21636XXSP,2013-07-10 03:03:00,
2013-07-09 22:08:00,75.5,68.3,29.86,North,0,0.0,0.0,78,0.00,,,0.12,WUHU21636XXSP,2013-07-10 03:08:00,
2013-07-09 22:13:00,75.3,68.1,29.86,North,0,0.0,0.0,78,0.00,,,0.12,WUHU21636XXSP,2013-07-10 03:13:00,
2013-07-09 22:18:00,75.3,68.1,29.86,North,0,0.0,0.0,78,0.00,,,0.12,WUHU21636XXSP,2013-07-10 03:18:00,
2013-07-09 22:23:00,75.2,68.3,29.86,North,0,0.0,0.0,79,0.00,,,0.12,WUHU21636XXSP,2013-07-10 03:23:00,
2013-07-09 22:28:00,75.0,68.1,29.86,North,0,0.0,0.0,79,0.00,,,0.12,WUHU21636XXSP,2013-07-10 03:28:00,
2013-07-09 22:33:00,74.6,67.7,29.86,North,0,0.0,0.0,79,0.00,,,0.12,WUHU21636XXSP,2013-07-10 03:33:00,
2013-07-09 22:38:00,74.6,67.7,29.87,North,0,0.0,0.0,79,0.00,,,0.12,WUHU21636XXSP,2013-07-10 03:38:00,
2013-07-09 22:43:00,74.3,67.5,29.87,North,0,0.0,0.0,79,0.00,,,0.12,WUHU21636XXSP,2013-07-10 03:43:00,
2013-07-09 22:48:00,74.2,67.4,29.87,SE,135,0.0,0.0,79,0.00,,,0.12,WUHU21636XXSP,2013-07-10 03:48:00,
2013-07-09 22:53:00,74.0,67.6,29.87,SE,135,0.0,0.0,80,0.00,,,0.12,WUHU21636XXSP,2013-07-10 03:53:00,
2013-07-09 22:58:00,74.0,67.6,29.87,SE,135,0.0,0.0,80,0.00,,,0.12,WUHU21636XXSP,2013-07-10 03:58:00,
2013-07-09 23:01:00,74.0,67.6,29.86,SE,135,0.0,0.0,80,0.00,,,0.12,WUHU21636XXSP,2013-07-10 04:01:00,
2013-07-09 23:06:00,73.8,67.4,29.87,WSW,247,0.0,0.0,80,0.00,,,0.12,WUHU21636XXSP,2013-07-10 04:06:00,
2013-07-09 23:11:00,73.6,67.1,29.87,East,90,0.0,0.0,80,0.00,,,0.12,WUHU21636XXSP,2013-07-10 04:11:00,
2013-07-09 23:16:00,73.4,67.3,29.86,East,90,0.0,0.0,81,0.00,,,0.12,WUHU21636XXSP,2013-07-10 04:16:00,
2013-07-09 23:21:00,73.4,67.3,29.86,East,90,0.0,0.0,81,0.00,,,0.12,WUHU21636XXSP,2013-07-10 04:21:00,
2013-07-09 23:26:00,73.4,67.3,29.86,West,270,0.0,0.0,81,0.00,,,0.12,WUHU21636XXSP,2013-07-10 04:26:00,
2013-07-09 23:31:00,73.4,67.3,29.86,West,270,0.0,0.0,81,0.00,,,0.12,WUHU21636XXSP,2013-07-10 04:31:00,
2013-07-09 23:36:00,73.4,67.3,29.86,WSW,247,0.0,0.0,81,0.00,,,0.12,WUHU21636XXSP,2013-07-10 04:36:00,
2013-07-09 23:41:00,73.4,67.3,29.86,WSW,247,0.0,0.0,81,0.00,,,0.12,WUHU21636XXSP,2013-07-10 04:41:00,
2013-07-09 23:46:00,73.4,67.3,29.86,WSW,247,0.0,0.0,81,0.00,,,0.12,WUHU21636XXSP,2013-07-10 04:46:00,
2013-07-09 23:51:00,73.4,67.3,29.86,WSW,247,0.0,0.0,81,0.00,,,0.12,WUHU21636XXSP,2013-07-10 04:51:00,
2013-07-09 23:56:00,73.4,67.3,29.86,WSW,247,0.0,0.0,81,0.00,,,0.12,WUHU21636XXSP,2013-07-10 04:56:00,